Houlton, ME

4:06 AM EDT on July 21, 2017 (GMT -0400)
Houlton International

Weather History for KHUL - January, 2013

Change the Weather History Date:

Thursday, January 3, 2013

  Actual Average Record
Temperature  
Mean Temperature 2 °F 13 °F  
Max Temperature 10 °F 24 °F 53 °F (1979)
Min Temperature -6 °F 3 °F -30 °F (1981)
Degree Days  
Heating Degree Days 63 52  
Month to date heating degree days 177 155  
Since 1 July heating degree days 3366 3675  
Cooling Degree Days 0 0  
Month to date cooling degree days 0 0  
Year to date cooling degree days 0 0  
Moisture  
Dew Point -8 °F    
Average Humidity 67    
Maximum Humidity 79    
Minimum Humidity 55    
Precipitation  
Precipitation 0.00 in 0.09 in 0.89 in (1992)
Month to date precipitation T 0.27  
Year to date precipitation T 0.27  
Sea Level Pressure  
Sea Level Pressure 29.93 in    
Wind  
Wind Speed 6 mph (NW)    
Max Wind Speed 15 mph    
Max Gust Speed 24 mph    
Visibility 10 miles    
Events      
T = Trace of Precipitation, MM = Missing Value Source: NWS Daily Summary

Daily Weather History Graph

Daily Weather History Graph

Search for Another Location

Airport or City:

Trip Planner

Search our weather history database for the weather conditions in past years. The results will help you decide how hot, cold, wet, or windy it might be!

Date:

Astronomy

Jan. 03, 2013 Rise Set
Actual Time 7:13 AM EST 3:58 PM EST
Civil Twilight 6:39 AM EST 4:32 PM EST
Nautical Twilight 6:01 AM EST 5:10 PM EST
Astronomical Twilight 5:24 AM EST 5:46 PM EST
Moon 10:53 PM EST (1/3) 10:01 AM EST (1/3)
Length of Visible Light 9h 53m
Length of Day
8h 44m
Waning Gibbous, 65% of the Moon is Illuminated
Jan 3
Waning Gibbous
Jan 4
Last Quarter
Jan 11
New
Jan 18
First Quarter
Jan 26
Full

Hourly Weather History & Observations

Time (EST) Temp. Windchill Dew Point Humidity Pressure Visibility Wind Dir Wind Speed Gust Speed Precip Events Conditions
12:53 AM -0.0 °F -15.3 °F -9.0 °F 66% 29.93 in 10.0 mi NW 9.2 mph 18.4 mph N/A   Clear
1:53 AM -0.0 °F -14.2 °F -9.9 °F 63% 29.95 in 10.0 mi NW 8.1 mph - N/A   Clear
2:53 AM -0.9 °F -16.4 °F -9.9 °F 66% 29.96 in 10.0 mi NNW 9.2 mph - N/A   Clear
3:53 AM -2.0 °F -15.4 °F -9.9 °F 69% 29.96 in 10.0 mi NNW 6.9 mph - N/A   Clear
4:53 AM -2.0 °F -16.6 °F -9.9 °F 69% 29.96 in 10.0 mi NW 8.1 mph - N/A   Clear
5:53 AM -2.0 °F -17.7 °F -11.0 °F 66% 29.99 in 10.0 mi NW 9.2 mph - N/A   Clear
6:53 AM -2.9 °F -17.7 °F -11.9 °F 65% 29.98 in 10.0 mi NW 8.1 mph - N/A   Clear
7:53 AM -2.9 °F -15.0 °F -11.9 °F 65% 29.98 in 10.0 mi NW 5.8 mph - N/A   Clear
8:53 AM -2.9 °F -13.3 °F -11.9 °F 65% 29.99 in 10.0 mi West 4.6 mph - N/A   Clear
9:53 AM 1.9 °F -12.9 °F -9.0 °F 60% 29.98 in 10.0 mi NNW 9.2 mph 19.6 mph N/A   Clear
10:53 AM 3.9 °F -11.3 °F -7.1 °F 60% 29.95 in 10.0 mi NNW 10.4 mph - N/A   Clear
11:53 AM 7.0 °F -7.5 °F -6.0 °F 55% 29.93 in 10.0 mi NNW 10.4 mph - N/A   Partly Cloudy
12:53 PM 8.1 °F -5.3 °F -5.1 °F 55% 29.92 in 10.0 mi NW 9.2 mph 18.4 mph N/A   Scattered Clouds
1:53 PM 9.0 °F -2.2 °F -4.0 °F 56% 29.91 in 10.0 mi WNW 6.9 mph - N/A   Overcast
2:53 PM 9.0 °F -2.2 °F -4.0 °F 56% 29.91 in 10.0 mi NNW 6.9 mph - N/A   Overcast
3:53 PM 7.0 °F -1.7 °F -4.0 °F 61% 29.91 in 10.0 mi WNW 4.6 mph - N/A   Mostly Cloudy
4:53 PM 3.9 °F - -5.1 °F 66% 29.91 in 10.0 mi Calm Calm - N/A   Scattered Clouds
5:53 PM 3.0 °F - -6.0 °F 66% 29.91 in 10.0 mi Calm Calm - N/A   Clear
6:53 PM -0.0 °F -11.6 °F -8.0 °F 69% 29.92 in 10.0 mi WNW 5.8 mph - N/A   Scattered Clouds
7:53 PM -4.0 °F - -9.9 °F 76% 29.91 in 10.0 mi Calm Calm - N/A   Overcast
8:53 PM -5.1 °F - -11.0 °F 76% 29.90 in 10.0 mi Calm Calm - N/A   Overcast
9:53 PM -0.0 °F - -6.0 °F 76% 29.90 in 10.0 mi Calm Calm - N/A   Overcast
10:53 PM 1.9 °F - -6.0 °F 69% 29.88 in 10.0 mi Calm Calm - N/A   Overcast
11:53 PM -0.0 °F - -7.1 °F 72% 29.86 in 10.0 mi Calm Calm - N/A   Clear